SCP
0 0 0 0 0 0 0 0 -0 0 0 0 0 0 -0 -0 -0 -0 -0 -0 -0 -0 -0 -0 -0 -0 -0 -0 0 0 -0 -0 -0 -0 -0 -0 -0 -0 -0 -0 -0 -0 -0
0 0 0 0 0 0 0 0 0 -0 0 0 0 0 0 -0 -0 -0 -0 -0 -0 -0 -0 -0 -0 -0 -0 0 -0 -0 -0 -0 -0 -0 -0 -0 -0 -0 -0 -0 -0 -0 -0
0 0 0 0 0 0 -0 0 -0 -0 0 0 0 0 0 -0 -0 -0 -0 -0 -0 -0 -0 -0 -0 -0 -0 -0 -0 -0 -0 -0 -0 -0 -0 -0 0 -0 0 0 0 0 0
0 0 0 0 0 -0 -0 0 0 -0 0 0 0 0 0 -0 -0 -0 -0 -0 -0 -0 0 0 -0 -0 -0 -0 -0 -0 -0 -0 -0 0 0 0 0 0 0 0 0 0 0
0 0 0 0 0 0 0 0 0 0 0 0 0 0 0 0 0 -0 0 0 0 0 0 -0 -0 -0 -0 -0 0 0 0 0 0 0 0 0 0 0 0 0 0 0 0
0 0 -0 0 0 0 0 0 -0 0 0 0 0 0 -0 0 0 0 0 0 0 0 -0 -0 0 -0 0 -0 0 0 0 0 0 0 0 0 0 0 0 0 0 0 0
0 0 0 0 0 -0 -0 0 -0 -0 -0 -0 -0 -0 -0 -0 -0 -0 -0 0 0 0 -0 -0 -0 0 0 0 0 0 0 0 0 0 0 0 0 0 0 0 0 0 0
0 0 0 0 0 0 0 0 0 0 0 -0 -0 -0 -0 0 -0 -0 -0 0 -0 -0 -0 -0 0 0 0 0 0 0 0 0 0 0 0 0 0 0 0 0 0 0 0
0 0 0 0 0 0 -0 0 0 -0 -0 -0 -0 -0 -0 0 -0 -0 -0 -0 -0 -0 -0 0 0 0 0 0 0 0 0 0 0 0 0 0 0 0 0 0 0 0 0
0 0 0 0 0 0 0 -0 -0 -0 -0 -0 -0 -0 -0 -0 -0 -0 -0 0 0 -0 0 0 0 0 0 0 0 0 0 0 0 0 0 0 0 0 0 0 0 0 0
0 0 0 0 0 0 0 0 0 0 -0 -0 -0 -0 0 0 0 0 0 0 -0 -0 0 0 0 0 0 0 0 0 0 0 0 0 0 0 0 0 0 0 0 0 0
-0 0 0 0 0 0 0 0 0 0 0 0 0 0 0 0 0 0 0 -0 -0 -0 0 0 0 0 0 0 0 0 0 0 0 0 0 0 0 0 0 0 0 0 0
-0 0 0 0 0 0 0 0 0 0 0 0 0 0 0 0 0 0 0 0 0 0 0 0 0 0 0 0 0 0 0 0 0 0 0 0 0 0 0 -0 0 -0 -0
-0 0 0 0 0 0 0 0 0 0 0 0 0 0 0 0 0 0 0 0 0 0 0 0 0 0 0 0 0 0 0 0 0 0 0 0 0 0 0 0 0 0 -0
-0 -0 0 0 0 -0 0 0 0 0 0 0 0 0 0 0 0 0 0 0 0 0 0 0 0 0 0 0 0 0 0 0 0 0 0 0 0 0 0 0 0 0 0
-0 0 -0 0 0 0 0 0 0 0 0 0 0 0 0 0 0 0 0 0 0 0 0 0 0 0 0 -0 0 0 0 0 0 0 -0 0 0 0 0 0 0 0 0
-0 -0 -0 -0 0 -0 0 0 -0 0 0 0 0 0 0 0 0 0 0 0 0 0 0 0 0 -0 -0 -0 -0 0 0 0 0 0 0 0 0 0 0 -0 -0 0 0
0 0 0 0 -0 -0 0 0 0 0 0 0 0 0 0 0 0 0 0 0 0 0 0 -0 -0 -0 -0 -0 -0 0 0 0 0 0 0 0 0 0 0 0 0 0 0
0 0 0 0 0 -0 0 0 0 0 0 0 0 0 0 0 0 0 0 0 0 0 0 -0 -0 -0 -0 -0 -0 0 0 0 0 0 0 -0 -0 0 0 0 0 0 0
0 0 -0 -0 0 -0 -0 -0 -0 -0 0 0 0 0 0 0 0 0 0 0 0 0 0 0 -0 -0 0 0 0 0 0 0 0 0 0 0 0 0 0 0 0 0 0
0 0 0 -0 -0 -0 0 0 0 -0 0 0 0 0 0 0 0 0 0 0 0 0 0 0 0 0 0 0 0 0 0 0 0 0 0 0 0 0 0 0 0 0 0
0 0 0 -0 -0 -0 0 0 0 -0 0 0 0 0 0 0 0 0 0 0 0 0 0 0 0 0 -0 -0 -0 0 0 0 0 0 -0 -0 -0 0 0 0 0 0 0
-0 -0 -0 -0 -0 -0 -0 0 0 0 0 0 0 0 0 0 0 0 0 0 0 0 0 0 0 0 0 0 0 0 0 0 0 0 0 0 0 0 0 0 0 0 0
-0 0 0 -0 0 0 -0 -0 0 0 0 0 0 0 0 0 0 0 0 0 0 0 0 0 0 0 0 -0 0 0 0 0 0 -0 0 0 -0 0 0 0 -0 0 0
-0 -0 0 0 0 0 0 -0 0 0 0 0 0 0 0 0 0 0 0 0 0 0 0 0 0 0 0 -0 0 0 -0 -0 0 0 0 -0 -0 -0 0 0 0 0 0
-0 0 0 0 0 0 0 0 0 0 -0 0 0 0 0 0 0 0 0 0 0 0 0 0 0 0 0 0 0 0 -0 -0 -0 -0 -0 -0 -0 -0 0 -0 -0 0 0
Wind_Speed_500mb
22 18 17 21 28 30 28 22 17 16 21 24 25 25 24 23 22 20 20 19 17 17 20 21 23 27 28 29 29 28 28 27 25 23 20 18 17 14 13 12 14 13 12
19 19 18 18 24 32 27 18 13 15 19 20 21 22 21 22 21 20 19 17 18 20 24 25 29 31 32 33 34 30 28 27 24 23 23 19 17 14 13 11 10 10 10
19 18 18 18 21 23 23 21 19 18 23 22 22 20 18 20 22 23 20 20 24 27 28 29 30 33 36 36 36 34 30 30 25 20 18 14 14 16 16 12 10 9 7
28 31 26 28 26 24 21 18 21 26 27 26 24 22 18 19 23 25 25 27 28 29 30 30 35 34 33 32 28 29 28 31 28 25 22 18 19 15 12 11 9 7 5
34 34 31 28 27 26 21 21 27 26 25 25 23 22 22 24 28 27 25 28 29 31 28 30 32 31 27 23 25 27 28 28 26 23 21 18 14 14 14 12 12 10 8
34 33 35 30 26 26 25 25 24 31 26 26 25 23 19 22 24 26 28 29 30 26 28 30 31 31 26 27 25 25 25 27 27 22 17 13 12 13 12 13 13 10 9
32 30 29 28 24 26 25 23 23 28 29 30 28 29 23 27 33 35 31 32 29 27 28 29 27 23 21 21 26 25 28 26 25 22 20 17 14 12 12 12 12 11 9
22 26 23 24 22 22 22 23 26 29 32 32 33 33 32 37 40 37 33 30 27 25 24 23 22 21 21 24 26 25 29 29 26 25 23 21 20 18 16 15 13 12 11
21 21 24 26 21 21 18 25 26 29 32 31 34 33 32 32 34 34 31 27 24 23 23 25 21 21 23 23 22 24 26 26 26 24 22 20 19 19 20 20 18 16 15
23 20 18 19 23 20 20 22 25 27 29 31 32 33 31 32 32 30 28 26 24 24 24 24 22 23 20 17 23 22 23 25 23 20 18 19 17 18 17 18 19 20 19
25 22 19 16 16 19 20 21 23 26 27 30 30 32 29 30 32 31 29 28 27 28 29 24 21 19 16 15 17 22 22 20 17 16 14 15 13 14 16 14 14 17 20
28 26 22 19 19 19 18 20 24 26 26 31 30 28 27 28 30 29 28 28 28 29 30 26 22 15 10 9 13 19 18 16 15 10 12 8 7 8 14 15 13 13 15
27 27 24 21 20 20 20 22 25 27 26 28 28 27 26 24 27 29 32 31 32 31 30 25 18 12 8 7 12 15 17 17 14 13 6 9 13 11 13 13 13 13 14
31 27 23 25 24 28 30 26 21 23 26 27 27 25 23 22 26 32 36 32 32 32 27 23 16 11 8 8 12 15 17 14 11 13 10 16 19 19 23 10 13 9 12
32 30 24 27 30 29 22 18 16 17 20 20 22 22 24 22 27 29 26 26 27 26 28 22 17 13 11 12 13 15 16 15 14 13 12 14 20 25 20 9 8 9 12
35 30 29 28 29 26 14 15 14 14 18 22 21 20 19 18 19 15 17 20 23 25 27 23 23 18 19 20 19 17 15 13 26 18 10 10 19 29 11 8 9 11 14
35 31 35 31 27 20 16 19 13 15 13 20 21 17 11 12 14 12 11 17 20 24 23 18 14 11 9 12 11 6 6 11 17 15 15 14 24 18 10 10 10 12 16
35 32 37 32 25 24 19 12 9 8 10 20 14 9 16 14 18 13 11 12 19 18 17 14 10 8 6 2 2 5 5 9 15 7 17 21 17 8 9 11 12 11 13
34 33 34 32 24 27 24 19 13 14 13 12 13 6 19 20 17 14 12 10 14 16 15 12 11 8 6 3 1 5 10 13 14 9 3 13 10 9 8 10 12 12 11
30 30 35 33 22 26 28 22 19 17 15 13 17 15 23 24 18 17 18 14 10 14 9 11 10 6 6 5 10 6 12 14 18 4 3 3 7 9 8 8 7 8 10
36 29 41 40 30 33 29 27 23 18 17 15 19 27 21 20 19 16 19 15 15 11 7 8 5 4 7 12 8 16 17 3 21 13 7 8 5 7 7 6 5 13 18
43 35 43 39 36 33 25 20 18 16 14 18 30 19 17 21 21 17 19 17 12 9 4 7 6 4 3 2 5 13 14 4 17 15 7 4 5 8 4 9 7 12 16
51 43 40 43 37 32 31 27 26 22 18 21 25 21 17 23 15 15 21 21 14 7 3 6 4 2 6 5 5 6 9 10 16 22 11 5 12 1 6 7 7 8 13
59 50 45 44 35 32 38 31 28 20 20 16 21 17 19 21 15 14 14 25 22 19 11 10 12 10 13 8 5 7 4 13 13 10 20 20 18 11 5 8 1 7 10
61 57 51 47 41 35 38 36 30 26 21 15 17 15 20 19 17 11 9 21 24 22 18 15 12 14 13 2 1 5 4 6 12 12 11 17 19 21 11 9 4 9 5
61 64 55 54 46 41 41 41 35 32 26 24 23 16 23 22 24 14 10 26 19 20 20 18 17 15 17 10 4 6 4 6 11 15 11 14 17 16 15 16 11 8 6
Wind_Direction_500mb
182 180 173 175 170 162 147 140 142 142 135 141 143 144 139 138 135 123 112 108 115 118 118 124 119 111 107 104 105 99 94 90 89 86 83 86 81 92 111 108 108 118 131
163 165 162 158 176 183 194 191 171 148 141 131 143 148 146 139 137 135 124 115 120 110 105 113 112 109 103 100 99 94 88 85 86 79 79 84 68 81 85 105 122 124 130
151 153 152 147 152 166 175 172 187 166 150 142 138 142 141 150 146 144 132 139 122 110 109 111 110 108 104 99 96 96 88 79 75 70 70 67 73 82 83 92 104 106 127
124 120 121 120 121 123 131 148 165 155 146 137 131 117 110 149 143 127 128 137 121 115 110 106 105 104 102 100 100 92 82 71 67 64 66 69 76 82 83 78 78 95 126
122 119 119 120 118 112 106 110 136 137 131 127 123 115 116 115 125 126 128 122 122 117 113 107 104 103 102 101 95 83 75 66 59 62 61 65 71 77 76 65 72 73 84
124 118 113 105 105 113 106 113 120 135 131 122 112 107 110 120 123 123 121 125 122 119 112 105 105 103 99 96 83 78 68 59 52 57 61 71 65 64 71 70 68 67 60
127 122 120 118 110 96 105 105 124 128 123 115 111 107 108 116 121 119 119 119 121 118 113 113 110 103 100 89 78 69 62 57 53 59 64 67 63 60 56 54 56 57 47
136 125 121 122 117 110 117 108 109 109 113 114 110 103 101 99 104 109 111 117 118 117 115 122 122 112 101 83 71 63 54 53 58 63 65 67 69 69 65 60 55 49 44
148 139 134 131 122 126 115 112 103 102 107 109 110 105 105 104 107 113 123 126 126 126 130 135 130 119 98 72 57 53 56 57 66 73 75 77 73 65 57 48 41 35 28
160 147 134 126 130 129 130 118 115 111 117 118 114 109 104 110 113 114 119 124 125 130 134 135 117 106 93 74 59 58 64 64 72 76 82 80 75 69 56 48 40 33 30
165 151 142 133 131 133 134 128 126 125 122 127 121 115 112 111 112 114 117 125 130 130 136 138 124 113 100 76 53 41 58 71 78 73 81 80 71 58 41 25 27 14 17
166 156 151 145 138 140 142 135 133 132 128 125 122 117 114 112 111 113 118 123 125 127 132 135 132 124 108 72 33 46 73 78 75 77 105 83 61 37 18 13 7 20 27
165 165 160 154 144 143 137 131 131 136 135 130 127 123 118 117 115 117 118 117 112 114 123 127 128 124 112 66 55 59 77 71 49 53 50 16 356 340 338 356 8 14 23
174 169 169 155 148 143 135 126 130 134 136 138 137 132 128 120 116 117 118 115 116 120 119 117 123 134 128 114 92 85 78 62 38 49 29 11 352 328 327 334 359 18 35
182 175 170 163 157 153 143 137 140 141 143 143 142 139 134 121 117 126 125 124 125 119 114 118 125 119 90 105 114 85 72 48 6 353 355 355 3 7 2 16 9 45 63
180 174 175 167 167 165 165 151 141 148 161 153 153 145 134 132 131 129 130 139 136 120 115 114 114 112 96 102 102 90 71 61 26 44 17 13 18 9 38 52 51 71 74
183 185 175 171 168 170 160 152 129 136 147 156 161 164 164 158 158 150 149 152 153 140 137 142 142 128 104 87 72 61 58 355 355 358 349 16 19 39 51 71 75 82 80
199 191 185 185 187 202 189 185 180 145 128 177 192 199 176 159 171 174 167 163 159 160 158 166 166 165 172 140 73 79 46 338 329 332 5 6 10 31 78 79 80 102 81
204 211 197 200 208 210 209 209 183 175 156 151 178 178 185 171 172 174 179 167 156 159 168 177 173 162 97 125 133 333 337 334 322 292 313 19 61 68 86 91 87 84 80
198 211 198 189 179 173 179 181 171 178 174 173 156 150 158 164 170 175 185 182 173 160 180 213 225 222 263 258 311 317 346 2 15 34 13 335 94 50 100 126 78 29 34
204 199 192 187 189 184 181 182 181 176 188 175 170 150 151 168 172 174 188 175 168 151 110 140 188 236 270 260 294 301 316 293 13 34 85 83 91 75 98 73 8 8 14
207 204 197 193 191 195 192 189 189 176 164 165 179 164 157 167 165 179 181 178 172 157 135 167 195 0 212 218 306 319 349 324 26 42 91 103 59 128 98 62 30 5 358
211 211 205 199 202 203 203 199 190 186 176 180 176 183 179 182 174 185 195 193 194 202 194 200 187 313 347 309 297 350 326 353 8 45 26 66 26 287 161 79 23 18 16
214 215 212 208 210 207 205 208 202 219 193 186 182 172 182 180 189 196 204 201 208 215 223 251 266 259 283 280 317 334 347 7 354 359 36 46 35 45 240 297 285 32 22
216 220 216 216 211 212 206 207 221 217 208 204 195 199 191 197 194 206 228 208 207 215 224 224 244 271 259 160 144 47 16 345 359 348 9 26 42 32 20 355 271 318 323
224 218 221 220 215 218 213 215 222 222 214 208 201 208 206 213 205 217 238 201 189 201 204 216 225 252 242 245 260 308 323 345 350 338 326 353 9 16 7 348 317 273 265
Wind_Speed_850mb
22 18 17 21 28 30 28 22 17 16 21 24 25 25 24 23 22 20 20 19 17 17 20 21 23 27 28 29 29 28 28 27 25 23 20 18 17 14 13 12 14 13 12
19 19 18 18 24 32 27 18 13 15 19 20 21 22 21 22 21 20 19 17 18 20 24 25 29 31 32 33 34 30 28 27 24 23 23 19 17 14 13 11 10 10 10
19 18 18 18 21 23 23 21 19 18 23 22 22 20 18 20 22 23 20 20 24 27 28 29 30 33 36 36 36 34 30 30 25 20 18 14 14 16 16 12 10 9 7
28 31 26 28 26 24 21 18 21 26 27 26 24 22 18 19 23 25 25 27 28 29 30 30 35 34 33 32 28 29 28 31 28 25 22 18 19 15 12 11 9 7 5
34 34 31 28 27 26 21 21 27 26 25 25 23 22 22 24 28 27 25 28 29 31 28 30 32 31 27 23 25 27 28 28 26 23 21 18 14 14 14 12 12 10 8
34 33 35 30 26 26 25 25 24 31 26 26 25 23 19 22 24 26 28 29 30 26 28 30 31 31 26 27 25 25 25 27 27 22 17 13 12 13 12 13 13 10 9
32 30 29 28 24 26 25 23 23 28 29 30 28 29 23 27 33 35 31 32 29 27 28 29 27 23 21 21 26 25 28 26 25 22 20 17 14 12 12 12 12 11 9
22 26 23 24 22 22 22 23 26 29 32 32 33 33 32 37 40 37 33 30 27 25 24 23 22 21 21 24 26 25 29 29 26 25 23 21 20 18 16 15 13 12 11
21 21 24 26 21 21 18 25 26 29 32 31 34 33 32 32 34 34 31 27 24 23 23 25 21 21 23 23 22 24 26 26 26 24 22 20 19 19 20 20 18 16 15
23 20 18 19 23 20 20 22 25 27 29 31 32 33 31 32 32 30 28 26 24 24 24 24 22 23 20 17 23 22 23 25 23 20 18 19 17 18 17 18 19 20 19
25 22 19 16 16 19 20 21 23 26 27 30 30 32 29 30 32 31 29 28 27 28 29 24 21 19 16 15 17 22 22 20 17 16 14 15 13 14 16 14 14 17 20
28 26 22 19 19 19 18 20 24 26 26 31 30 28 27 28 30 29 28 28 28 29 30 26 22 15 10 9 13 19 18 16 15 10 12 8 7 8 14 15 13 13 15
27 27 24 21 20 20 20 22 25 27 26 28 28 27 26 24 27 29 32 31 32 31 30 25 18 12 8 7 12 15 17 17 14 13 6 9 13 11 13 13 13 13 14
31 27 23 25 24 28 30 26 21 23 26 27 27 25 23 22 26 32 36 32 32 32 27 23 16 11 8 8 12 15 17 14 11 13 10 16 19 19 23 10 13 9 12
32 30 24 27 30 29 22 18 16 17 20 20 22 22 24 22 27 29 26 26 27 26 28 22 17 13 11 12 13 15 16 15 14 13 12 14 20 25 20 9 8 9 12
35 30 29 28 29 26 14 15 14 14 18 22 21 20 19 18 19 15 17 20 23 25 27 23 23 18 19 20 19 17 15 13 26 18 10 10 19 29 11 8 9 11 14
35 31 35 31 27 20 16 19 13 15 13 20 21 17 11 12 14 12 11 17 20 24 23 18 14 11 9 12 11 6 6 11 17 15 15 14 24 18 10 10 10 12 16
35 32 37 32 25 24 19 12 9 8 10 20 14 9 16 14 18 13 11 12 19 18 17 14 10 8 6 2 2 5 5 9 15 7 17 21 17 8 9 11 12 11 13
34 33 34 32 24 27 24 19 13 14 13 12 13 6 19 20 17 14 12 10 14 16 15 12 11 8 6 3 1 5 10 13 14 9 3 13 10 9 8 10 12 12 11
30 30 35 33 22 26 28 22 19 17 15 13 17 15 23 24 18 17 18 14 10 14 9 11 10 6 6 5 10 6 12 14 18 4 3 3 7 9 8 8 7 8 10
36 29 41 40 30 33 29 27 23 18 17 15 19 27 21 20 19 16 19 15 15 11 7 8 5 4 7 12 8 16 17 3 21 13 7 8 5 7 7 6 5 13 18
43 35 43 39 36 33 25 20 18 16 14 18 30 19 17 21 21 17 19 17 12 9 4 7 6 4 3 2 5 13 14 4 17 15 7 4 5 8 4 9 7 12 16
51 43 40 43 37 32 31 27 26 22 18 21 25 21 17 23 15 15 21 21 14 7 3 6 4 2 6 5 5 6 9 10 16 22 11 5 12 1 6 7 7 8 13
59 50 45 44 35 32 38 31 28 20 20 16 21 17 19 21 15 14 14 25 22 19 11 10 12 10 13 8 5 7 4 13 13 10 20 20 18 11 5 8 1 7 10
61 57 51 47 41 35 38 36 30 26 21 15 17 15 20 19 17 11 9 21 24 22 18 15 12 14 13 2 1 5 4 6 12 12 11 17 19 21 11 9 4 9 5
61 64 55 54 46 41 41 41 35 32 26 24 23 16 23 22 24 14 10 26 19 20 20 18 17 15 17 10 4 6 4 6 11 15 11 14 17 16 15 16 11 8 6
Wind_Direction_850mb
182 180 173 175 170 162 147 140 142 142 135 141 143 144 139 138 135 123 112 108 115 118 118 124 119 111 107 104 105 99 94 90 89 86 83 86 81 92 111 108 108 118 131
163 165 162 158 176 183 194 191 171 148 141 131 143 148 146 139 137 135 124 115 120 110 105 113 112 109 103 100 99 94 88 85 86 79 79 84 68 81 85 105 122 124 130
151 153 152 147 152 166 175 172 187 166 150 142 138 142 141 150 146 144 132 139 122 110 109 111 110 108 104 99 96 96 88 79 75 70 70 67 73 82 83 92 104 106 127
124 120 121 120 121 123 131 148 165 155 146 137 131 117 110 149 143 127 128 137 121 115 110 106 105 104 102 100 100 92 82 71 67 64 66 69 76 82 83 78 78 95 126
122 119 119 120 118 112 106 110 136 137 131 127 123 115 116 115 125 126 128 122 122 117 113 107 104 103 102 101 95 83 75 66 59 62 61 65 71 77 76 65 72 73 84
124 118 113 105 105 113 106 113 120 135 131 122 112 107 110 120 123 123 121 125 122 119 112 105 105 103 99 96 83 78 68 59 52 57 61 71 65 64 71 70 68 67 60
127 122 120 118 110 96 105 105 124 128 123 115 111 107 108 116 121 119 119 119 121 118 113 113 110 103 100 89 78 69 62 57 53 59 64 67 63 60 56 54 56 57 47
136 125 121 122 117 110 117 108 109 109 113 114 110 103 101 99 104 109 111 117 118 117 115 122 122 112 101 83 71 63 54 53 58 63 65 67 69 69 65 60 55 49 44
148 139 134 131 122 126 115 112 103 102 107 109 110 105 105 104 107 113 123 126 126 126 130 135 130 119 98 72 57 53 56 57 66 73 75 77 73 65 57 48 41 35 28
160 147 134 126 130 129 130 118 115 111 117 118 114 109 104 110 113 114 119 124 125 130 134 135 117 106 93 74 59 58 64 64 72 76 82 80 75 69 56 48 40 33 30
165 151 142 133 131 133 134 128 126 125 122 127 121 115 112 111 112 114 117 125 130 130 136 138 124 113 100 76 53 41 58 71 78 73 81 80 71 58 41 25 27 14 17
166 156 151 145 138 140 142 135 133 132 128 125 122 117 114 112 111 113 118 123 125 127 132 135 132 124 108 72 33 46 73 78 75 77 105 83 61 37 18 13 7 20 27
165 165 160 154 144 143 137 131 131 136 135 130 127 123 118 117 115 117 118 117 112 114 123 127 128 124 112 66 55 59 77 71 49 53 50 16 356 340 338 356 8 14 23
174 169 169 155 148 143 135 126 130 134 136 138 137 132 128 120 116 117 118 115 116 120 119 117 123 134 128 114 92 85 78 62 38 49 29 11 352 328 327 334 359 18 35
182 175 170 163 157 153 143 137 140 141 143 143 142 139 134 121 117 126 125 124 125 119 114 118 125 119 90 105 114 85 72 48 6 353 355 355 3 7 2 16 9 45 63
180 174 175 167 167 165 165 151 141 148 161 153 153 145 134 132 131 129 130 139 136 120 115 114 114 112 96 102 102 90 71 61 26 44 17 13 18 9 38 52 51 71 74
183 185 175 171 168 170 160 152 129 136 147 156 161 164 164 158 158 150 149 152 153 140 137 142 142 128 104 87 72 61 58 355 355 358 349 16 19 39 51 71 75 82 80
199 191 185 185 187 202 189 185 180 145 128 177 192 199 176 159 171 174 167 163 159 160 158 166 166 165 172 140 73 79 46 338 329 332 5 6 10 31 78 79 80 102 81
204 211 197 200 208 210 209 209 183 175 156 151 178 178 185 171 172 174 179 167 156 159 168 177 173 162 97 125 133 333 337 334 322 292 313 19 61 68 86 91 87 84 80
198 211 198 189 179 173 179 181 171 178 174 173 156 150 158 164 170 175 185 182 173 160 180 213 225 222 263 258 311 317 346 2 15 34 13 335 94 50 100 126 78 29 34
204 199 192 187 189 184 181 182 181 176 188 175 170 150 151 168 172 174 188 175 168 151 110 140 188 236 270 260 294 301 316 293 13 34 85 83 91 75 98 73 8 8 14
207 204 197 193 191 195 192 189 189 176 164 165 179 164 157 167 165 179 181 178 172 157 135 167 195 0 212 218 306 319 349 324 26 42 91 103 59 128 98 62 30 5 358
211 211 205 199 202 203 203 199 190 186 176 180 176 183 179 182 174 185 195 193 194 202 194 200 187 313 347 309 297 350 326 353 8 45 26 66 26 287 161 79 23 18 16
214 215 212 208 210 207 205 208 202 219 193 186 182 172 182 180 189 196 204 201 208 215 223 251 266 259 283 280 317 334 347 7 354 359 36 46 35 45 240 297 285 32 22
216 220 216 216 211 212 206 207 221 217 208 204 195 199 191 197 194 206 228 208 207 215 224 224 244 271 259 160 144 47 16 345 359 348 9 26 42 32 20 355 271 318 323
224 218 221 220 215 218 213 215 222 222 214 208 201 208 206 213 205 217 238 201 189 201 204 216 225 252 242 245 260 308 323 345 350 338 326 353 9 16 7 348 317 273 265